KE4LOJ Weather Reports


Display with metric or nautical units.
time (UTC)temp
F
wind
direction
speed
MPH
gust
MPH
rain 1hr
in
rain 24hr
in
rain mn
in
humidity
%
barometer
mb
20260510230444 82 118 0.0 0.0 0.00 0.00 0.00 76 1015.7
20260510225941 82 112 0.0 1.0 0.00 0.00 0.00 76 1015.7
20260510225438 82 116 2.0 2.0 0.00 0.00 0.00 76 1015.7
20260510224933 82 111 1.0 2.0 0.00 0.00 0.00 76 1015.9
20260510224430 82 107 0.0 1.0 0.00 0.00 0.00 76 1016.0
20260510223926 82 120 0.0 3.0 0.00 0.00 0.00 76 1015.6
20260510223424 82 92 1.0 1.0 0.00 0.00 0.00 76 1016.0
20260510222921 83 93 0.0 2.0 0.00 0.00 0.00 75 1015.7
20260510222419 83 79 2.0 3.0 0.00 0.00 0.00 74 1015.8
20260510221914 83 96 0.0 0.0 0.00 0.00 0.00 74 1015.7
20260510221411 83 115 1.0 2.0 0.00 0.00 0.00 74 1015.7
20260510220907 83 98 0.0 2.0 0.00 0.00 0.00 75 1015.7
20260510220403 83 110 0.0 1.0 0.00 0.00 0.00 74 1015.7
20260510215859 83 114 1.0 2.0 0.00 0.00 0.00 74 1015.8
20260510215357 84 77 2.0 2.0 0.00 0.00 0.00 73 1015.7
20260510214854 84 128 0.0 1.0 0.00 0.00 0.00 73 1015.7
20260510214352 83 111 1.0 1.0 0.00 0.00 0.00 72 1015.8
20260510213848 84 109 1.0 3.0 0.00 0.00 0.00 72 1015.8
20260510213344 85 105 0.0 3.0 0.00 0.00 0.00 65 1015.9
20260510212841 86 85 1.0 2.0 0.00 0.00 0.00 64 1015.8
20260510212338 86 123 1.0 3.0 0.00 0.00 0.00 64 1015.5
20260510211835 86 115 0.0 1.0 0.00 0.00 0.00 64 1015.5
20260510211331 85 118 0.0 2.0 0.00 0.00 0.00 65 1015.4
20260510210827 85 340 3.0 3.0 0.00 0.00 0.00 65 1015.8
20260510210322 86 89 1.0 3.0 0.00 0.00 0.00 65 1015.8
20260510205821 86 117 0.0 1.0 0.00 0.00 0.00 65 1015.6
20260510205317 86 117 1.0 4.0 0.00 0.00 0.00 63 1015.7
20260510204813 85 115 0.0 3.0 0.00 0.00 0.00 64 1015.8
20260510204310 85 113 0.0 2.0 0.00 0.00 0.00 66 1015.9
20260510203807 84 109 0.0 0.0 0.00 0.00 0.00 65 1015.8
20260510203305 84 114 0.0 3.0 0.00 0.00 0.00 66 1015.6
20260510202804 84 122 0.0 3.0 0.00 0.00 0.00 68 1015.7
20260510202300 84 114 0.0 2.0 0.00 0.00 0.00 70 1015.8
20260510201757 83 117 0.0 0.0 0.00 0.00 0.00 71 1015.8
20260510201254 83 115 0.0 2.0 0.00 0.00 0.00 75 1015.6
20260510200750 83 98 1.0 2.0 0.00 0.00 0.00 78 1015.4
20260510200248 83 64 0.0 1.0 0.00 0.00 0.00 78 1015.4
20260510195744 83 112 0.0 1.0 0.00 0.00 0.00 78 1015.1
20260510195241 83 123 0.0 0.0 0.00 0.00 0.00 79 1015.2
20260510194740 83 126 0.0 0.0 0.00 0.00 0.00 81 1015.2
20260510194238 83 113 1.0 3.0 0.00 0.00 0.00 78 1015.1
20260510193734 85 110 0.0 1.0 0.00 0.00 0.00 74 1015.1
20260510193228 90 87 2.0 4.0 0.00 0.00 0.00 59 1015.4
20260510192724 92 327 4.0 6.0 0.00 0.00 0.00 49 1015.1
20260510192220 92 90 0.0 0.0 0.00 0.00 0.00 50 1015.2
20260510191716 93 254 2.0 4.0 0.00 0.00 0.00 50 1015.3
20260510191212 91 124 0.0 4.0 0.00 0.00 0.00 52 1015.2
20260510190710 92 306 3.0 6.0 0.00 0.00 0.00 51 1015.3
20260510190207 92 145 1.0 7.0 0.00 0.00 0.00 51 1015.1
20260510185704 92 163 1.0 3.0 0.00 0.00 0.00 51 1015.3
20260510185202 91 270 4.0 8.0 0.00 0.00 0.00 52 1015.5
20260510184658 92 102 1.0 4.0 0.00 0.00 0.00 52 1015.7
20260510184154 91 319 4.0 6.0 0.00 0.00 0.00 51 1015.6
20260510183649 92 251 3.0 4.0 0.00 0.00 0.00 51 1015.6
20260510183144 91 135 1.0 6.0 0.00 0.00 0.00 52 1015.7
20260510182642 92 284 4.0 4.0 0.00 0.00 0.00 51 1015.7
20260510182137 93 355 2.0 3.0 0.00 0.00 0.00 50 1015.9
20260510181635 92 160 0.0 3.0 0.00 0.00 0.00 50 1015.8
20260510181131 91 127 0.0 2.0 0.00 0.00 0.00 53 1015.8
20260510180627 90 211 2.0 4.0 0.00 0.00 0.00 53 1015.8
20260510180125 92 228 6.0 8.0 0.00 0.00 0.00 52 1016.1
20260510175620 91 153 0.0 1.0 0.00 0.00 0.00 54 1016.3
20260510175116 91 123 1.0 1.0 0.00 0.00 0.00 54 1016.3
20260510174614 90 113 0.0 3.0 0.00 0.00 0.00 53 1016.3
20260510174112 91 144 2.0 4.0 0.00 0.00 0.00 53 1016.2
20260510173607 90 124 1.0 1.0 0.00 0.00 0.00 54 1016.3
20260510173104 90 123 2.0 6.0 0.00 0.00 0.00 54 1016.6
20260510172559 90 326 4.0 6.0 0.00 0.00 0.00 53 1016.5
20260510172056 90 212 2.0 6.0 0.00 0.00 0.00 55 1016.6
20260510171552 91 84 3.0 7.0 0.00 0.00 0.00 53 1016.6
20260510171050 90 249 2.0 6.0 0.00 0.00 0.00 54 1016.4
20260510170546 91 258 3.0 4.0 0.00 0.00 0.00 56 1016.9
20260510170043 90 291 3.0 6.0 0.00 0.00 0.00 56 1016.8
20260510165538 90 269 2.0 7.0 0.00 0.00 0.00 56 1016.9
20260510165035 91 250 2.0 6.0 0.00 0.00 0.00 55 1017.0
20260510164532 91 196 1.0 6.0 0.00 0.00 0.00 56 1017.0
20260510164029 90 185 3.0 8.0 0.00 0.00 0.00 57 1017.1
20260510163524 90 300 2.0 3.0 0.00 0.00 0.00 58 1017.1
20260510163020 89 178 0.0 1.0 0.00 0.00 0.00 57 1017.1
20260510162516 88 281 2.0 3.0 0.00 0.00 0.00 59 1017.1
20260510162013 88 216 3.0 6.0 0.00 0.00 0.00 60 1017.1
20260510161509 89 275 4.0 6.0 0.00 0.00 0.00 60 1017.3
20260510161006 88 141 2.0 4.0 0.00 0.00 0.00 60 1017.3
20260510160503 87 135 2.0 7.0 0.00 0.00 0.00 61 1017.1
20260510160001 87 264 4.0 7.0 0.00 0.00 0.00 61 1017.2
20260510155458 87 169 1.0 6.0 0.00 0.00 0.00 62 1017.4
20260510154955 87 299 3.0 3.0 0.00 0.00 0.00 63 1017.2
20260510154451 88 165 2.0 3.0 0.00 0.00 0.00 63 1017.2
20260510153950 87 114 2.0 3.0 0.00 0.00 0.00 63 1017.3
20260510153446 87 169 2.0 3.0 0.00 0.00 0.00 62 1017.4
20260510152943 87 118 0.0 2.0 0.00 0.00 0.00 64 1017.4
20260510152441 86 27 1.0 7.0 0.00 0.00 0.00 65 1017.4
20260510151937 86 102 2.0 4.0 0.00 0.00 0.00 65 1017.3
20260510151434 86 110 0.0 6.0 0.00 0.00 0.00 65 1017.3
20260510150930 86 249 3.0 6.0 0.00 0.00 0.00 65 1017.2
20260510150426 86 307 3.0 4.0 0.00 0.00 0.00 66 1017.3
20260510145922 85 100 1.0 3.0 0.00 0.00 0.00 68 1017.2
20260510145419 85 311 2.0 3.0 0.00 0.00 0.00 68 1017.2
20260510144915 85 23 4.0 6.0 0.00 0.00 0.00 68 1017.1
20260510144412 85 121 1.0 4.0 0.00 0.00 0.00 66 1017.2
20260510143907 85 224 2.0 4.0 0.00 0.00 0.00 69 1016.9
20260510143403 84 134 0.0 2.0 0.00 0.00 0.00 71 1017.0
20260510142900 84 93 0.0 4.0 0.00 0.00 0.00 73 1017.2
20260510142357 83 278 3.0 3.0 0.00 0.00 0.00 73 1017.2
20260510141853 83 144 1.0 3.0 0.00 0.00 0.00 73 1017.2
20260510141351 83 260 3.0 4.0 0.00 0.00 0.00 72 1017.2
20260510140848 83 121 3.0 7.0 0.00 0.00 0.00 73 1016.9
20260510140344 83 63 1.0 3.0 0.00 0.00 0.00 75 1017.1
20260510135843 83 142 2.0 4.0 0.00 0.00 0.00 73 1016.9
20260510135339 83 159 2.0 4.0 0.00 0.00 0.00 73 1016.9
20260510134837 83 112 1.0 2.0 0.00 0.00 0.00 75 1016.8
20260510134333 82 276 2.0 4.0 0.00 0.00 0.00 75 1016.7
20260510133830 82 160 1.0 1.0 0.00 0.00 0.00 76 1016.8
20260510133326 82 164 2.0 4.0 0.00 0.00 0.00 77 1016.6
20260510132821 82 221 2.0 2.0 0.00 0.00 0.00 78 1016.6
20260510132320 81 140 1.0 2.0 0.00 0.00 0.00 79 1016.7
20260510131816 81 134 1.0 3.0 0.00 0.00 0.00 79 1016.5
20260510131314 81 116 0.0 1.0 0.00 0.00 0.00 81 1016.6
20260510130810 80 142 0.0 0.0 0.00 0.00 0.00 82 1016.6
20260510130307 80 128 0.0 0.0 0.00 0.00 0.00 83 1016.4
20260510125804 80 137 0.0 1.0 0.00 0.00 0.00 83 1016.4
20260510125259 79 152 1.0 2.0 0.00 0.00 0.00 83 1016.6
20260510124757 80 181 2.0 3.0 0.00 0.00 0.00 83 1016.5
20260510124254 80 139 0.0 0.0 0.00 0.00 0.00 83 1016.3
20260510123749 80 131 0.0 0.0 0.00 0.00 0.00 84 1016.4
20260510123245 79 133 0.0 1.0 0.00 0.00 0.00 85 1016.4
20260510122742 78 143 2.0 4.0 0.00 0.00 0.00 87 1016.4
20260510122238 78 177 3.0 4.0 0.00 0.00 0.00 88 1016.4
20260510121734 77 164 1.0 3.0 0.00 0.00 0.00 90 1016.2
20260510121232 76 144 0.0 2.0 0.00 0.00 0.00 92 1015.8
20260510120730 76 124 0.0 0.0 0.00 0.00 0.00 93 1015.8
20260510120226 76 134 0.0 1.0 0.00 0.00 0.00 93 1015.8
20260510115721 75 170 1.0 2.0 0.00 0.00 0.00 94 1015.9
20260510115220 75 139 0.0 1.0 0.00 0.00 0.00 95 1015.9
20260510114715 75 133 0.0 2.0 0.00 0.00 0.00 95 1015.9
20260510114212 75 177 1.0 2.0 0.00 0.00 0.00 96 1015.9
20260510113707 75 150 0.0 2.0 0.00 0.00 0.00 96 1015.7
20260510113204 74 148 0.0 1.0 0.00 0.00 0.00 96 1015.7
20260510112700 74 131 0.0 0.0 0.00 0.00 0.00 97 1015.7
20260510112158 74 153 0.0 0.0 0.00 0.00 0.00 97 1015.6
20260510111653 74 139 0.0 0.0 0.00 0.00 0.00 97 1015.4
20260510111151 74 129 0.0 0.0 0.00 0.00 0.00 97 1015.3
20260510110645 74 149 0.0 0.0 0.00 0.00 0.00 97 1015.4
20260510110143 74 129 0.0 1.0 0.00 0.00 0.00 97 1015.2
20260510105638 74 149 0.0 1.0 0.00 0.00 0.00 97 1015.3
20260510105138 74 140 1.0 2.0 0.00 0.00 0.00 97 1015.0
20260510104635 74 130 0.0 0.0 0.00 0.00 0.00 97 1014.8
20260510104132 74 138 0.0 0.0 0.00 0.00 0.00 97 1014.7
20260510103629 74 131 0.0 1.0 0.00 0.00 0.00 97 1014.6
20260510103125 74 135 0.0 0.0 0.00 0.00 0.00 97 1014.7
20260510102620 73 137 0.0 1.0 0.00 0.00 0.00 97 1014.6
20260510102116 73 143 0.0 0.0 0.00 0.00 0.00 97 1014.5
20260510101614 73 138 0.0 0.0 0.00 0.00 0.00 97 1014.5
20260510101112 73 139 0.0 0.0 0.00 0.00 0.00 97 1014.5
20260510100608 73 138 0.0 0.0 0.00 0.00 0.00 97 1014.3
20260510100106 73 149 0.0 0.0 0.00 0.00 0.00 97 1014.5
20260510095602 73 134 0.0 0.0 0.00 0.00 0.00 97 1014.3
20260510095102 73 134 0.0 1.0 0.00 0.00 0.00 97 1014.4
20260510094601 73 139 0.0 0.0 0.00 0.00 0.00 97 1014.3
20260510094057 73 138 0.0 0.0 0.00 0.00 0.00 97 1014.4
20260510093553 73 139 0.0 0.0 0.00 0.00 0.00 97 1014.3
20260510093050 73 136 0.0 0.0 0.00 0.00 0.00 98 1014.2
20260510092547 73 136 0.0 0.0 0.00 0.00 0.00 98 1014.3
20260510092046 73 135 0.0 0.0 0.00 0.00 0.00 98 1014.3
20260510091543 73 136 0.0 0.0 0.00 0.00 0.00 98 1014.4
20260510091039 73 134 0.0 0.0 0.00 0.00 0.00 98 1014.2
20260510090537 73 134 0.0 0.0 0.00 0.00 0.00 98 1014.0
20260510090032 73 134 0.0 0.0 0.00 0.00 0.00 98 1014.2
20260510085532 73 135 0.0 0.0 0.00 0.00 0.00 98 1014.2
20260510085029 73 131 0.0 0.0 0.00 0.00 0.00 98 1013.9
20260510084526 73 132 0.0 0.0 0.00 0.00 0.00 98 1014.1
20260510084023 73 132 0.0 0.0 0.00 0.00 0.00 98 1014.2
20260510083519 73 131 0.0 0.0 0.00 0.00 0.00 98 1014.4
20260510083015 73 131 0.0 0.0 0.00 0.00 0.00 98 1014.3
20260510082513 73 131 0.0 0.0 0.00 0.00 0.00 98 1013.9
20260510082012 73 132 0.0 0.0 0.00 0.00 0.00 98 1014.1
20260510081508 73 132 0.0 0.0 0.00 0.00 0.00 97 1014.1
20260510081005 73 132 0.0 0.0 0.00 0.00 0.00 97 1014.0
20260510080502 73 132 0.0 0.0 0.00 0.00 0.00 97 1014.1
20260510080000 73 132 0.0 0.0 0.00 0.00 0.00 97 1014.2
20260510075457 73 132 0.0 0.0 0.00 0.00 0.00 97 1014.0
20260510074954 73 131 0.0 0.0 0.00 0.00 0.00 97 1014.2
20260510074452 73 131 0.0 0.0 0.00 0.00 0.00 97 1014.1
20260510073947 73 131 0.0 0.0 0.00 0.00 0.00 97 1014.3
20260510073443 73 131 0.0 0.0 0.00 0.00 0.00 97 1014.2
20260510072940 73 132 0.0 0.0 0.00 0.00 0.00 97 1014.3
20260510072437 73 132 0.0 0.0 0.00 0.00 0.00 97 1014.3
20260510071932 73 132 0.0 0.0 0.00 0.00 0.00 97 1014.4
20260510071429 73 131 0.0 0.0 0.00 0.00 0.00 97 1014.4
20260510070927 73 131 0.0 0.0 0.00 0.00 0.00 97 1014.5
20260510070424 73 131 0.0 0.0 0.00 0.00 0.00 97 1014.5
20260510065920 73 132 0.0 0.0 0.00 0.00 0.00 97 1014.5
20260510065416 73 131 0.0 0.0 0.00 0.00 0.00 97 1014.5
20260510064913 73 131 0.0 0.0 0.00 0.00 0.00 97 1014.5
20260510064411 73 131 0.0 0.0 0.00 0.00 0.00 97 1014.6
20260510063907 73 131 0.0 0.0 0.00 0.00 0.00 97 1014.6
20260510063403 73 131 0.0 0.0 0.00 0.00 0.00 96 1014.5
20260510062900 73 131 0.0 0.0 0.00 0.00 0.00 96 1014.5
20260510062355 73 131 0.0 0.0 0.00 0.00 0.00 96 1014.6
20260510061851 73 131 0.0 0.0 0.00 0.00 0.00 96 1014.7
20260510061348 74 131 0.0 0.0 0.00 0.00 0.00 96 1014.9
20260510060844 73 131 0.0 0.0 0.00 0.00 0.00 96 1014.8
20260510060341 74 131 0.0 0.0 0.00 0.00 0.00 96 1014.8
20260510055838 74 131 0.0 0.0 0.00 0.00 0.00 95 1015.0
20260510055337 74 131 0.0 0.0 0.00 0.00 0.00 95 1015.0
20260510054836 74 131 0.0 0.0 0.00 0.00 0.00 96 1015.1
20260510054332 74 131 0.0 0.0 0.00 0.00 0.00 95 1015.2
20260510053827 74 131 0.0 0.0 0.00 0.00 0.00 95 1015.1
20260510053323 74 131 0.0 0.0 0.00 0.00 0.00 95 1015.1
20260510052820 74 131 0.0 0.0 0.00 0.00 0.00 95 1015.1
20260510052315 74 131 0.0 0.0 0.00 0.00 0.00 95 1015.3
20260510051812 74 131 0.0 0.0 0.00 0.00 0.00 95 1015.4
20260510051309 74 132 0.0 0.0 0.00 0.00 0.00 95 1015.4
20260510050806 74 133 0.0 0.0 0.00 0.00 0.00 95 1015.4
20260510050302 74 126 0.0 0.0 0.00 0.00 0.00 94 1015.8
20260510045759 74 126 0.0 0.0 0.00 0.00 0.00 94 1015.9
20260510045256 74 126 0.0 0.0 0.00 0.00 0.00 94 1015.8
20260510044753 75 126 0.0 0.0 0.00 0.00 0.00 94 1016.0
20260510044250 75 126 0.0 1.0 0.00 0.00 0.00 94 1015.8
20260510043746 75 135 0.0 0.0 0.00 0.00 0.00 94 1015.7
20260510043243 74 100 0.0 0.0 0.00 0.00 0.00 94 1015.9
20260510042740 74 132 0.0 0.0 0.00 0.00 0.00 94 1015.7
20260510042235 74 132 0.0 0.0 0.00 0.00 0.00 94 1015.8
20260510041732 75 131 0.0 2.0 0.00 0.00 0.00 94 1015.5
20260510041230 75 135 0.0 0.0 0.00 0.00 0.00 93 1015.8
20260510040727 75 135 0.0 0.0 0.00 0.00 0.00 93 1015.8
20260510040224 75 136 0.0 1.0 0.00 0.00 0.00 93 1015.5
20260510035719 75 124 0.0 1.0 0.00 0.00 0.00 93 1015.6
20260510035215 75 130 1.0 1.0 0.00 0.00 0.00 92 1015.5
20260510034711 75 141 0.0 3.0 0.00 0.00 0.00 92 1015.3
20260510034209 75 134 0.0 1.0 0.00 0.00 0.00 91 1015.6
20260510033705 75 123 0.0 0.0 0.00 0.00 0.00 91 1015.6
20260510033203 75 125 0.0 1.0 0.00 0.00 0.00 90 1015.6
20260510032659 75 129 1.0 1.0 0.00 0.00 0.00 90 1015.6
20260510032154 75 135 1.0 1.0 0.00 0.00 0.00 89 1015.7
20260510031649 75 102 0.0 0.0 0.00 0.00 0.00 89 1015.8
20260510031147 75 102 0.0 0.0 0.00 0.00 0.00 89 1015.6
20260510030646 75 102 0.0 0.0 0.00 0.00 0.00 89 1015.5
20260510030144 75 102 0.0 0.0 0.00 0.00 0.00 88 1015.7
20260510025641 75 103 0.0 0.0 0.00 0.00 0.00 88 1015.4
20260510025138 76 103 0.0 0.0 0.00 0.00 0.00 88 1015.4
20260510024635 76 102 0.0 0.0 0.00 0.00 0.00 88 1015.6
20260510024132 76 101 0.0 0.0 0.00 0.00 0.00 87 1015.4
20260510023628 76 119 0.0 0.0 0.00 0.00 0.00 87 1015.3
20260510023125 76 117 0.0 3.0 0.00 0.00 0.00 87 1015.4
20260510022625 76 114 0.0 1.0 0.00 0.00 0.00 87 1015.3
20260510022120 76 124 2.0 2.0 0.00 0.00 0.00 87 1015.2
20260510021616 77 116 0.0 1.0 0.00 0.00 0.00 86 1015.3
20260510021114 77 112 1.0 1.0 0.00 0.00 0.00 86 1015.3
20260510020607 77 105 0.0 3.0 0.00 0.00 0.00 85 1015.4
20260510015559 77 65 1.0 2.0 0.00 0.00 0.00 85 1015.4
20260510015056 77 90 0.0 1.0 0.00 0.00 0.00 85 1015.2
20260510014552 77 104 0.0 0.0 0.00 0.00 0.00 84 1015.3
20260510014050 77 102 0.0 1.0 0.00 0.00 0.00 84 1015.2
20260510013544 77 98 2.0 2.0 0.00 0.00 0.00 84 1015.3
20260510013040 77 100 0.0 2.0 0.00 0.00 0.00 84 1015.0
20260510012534 77 100 0.0 0.0 0.00 0.00 0.00 84 1015.2
20260510012031 77 96 0.0 2.0 0.00 0.00 0.00 84 1015.0
20260510011530 77 96 1.0 1.0 0.00 0.00 0.00 84 1014.7
20260510011026 77 104 0.0 0.0 0.00 0.00 0.00 84 1014.6
20260510010523 77 110 1.0 3.0 0.00 0.00 0.00 84 1014.5
20260510010021 77 94 0.0 2.0 0.00 0.00 0.00 84 1014.6
20260510005516 77 75 0.0 3.0 0.00 0.00 0.00 84 1014.5
20260510005014 77 108 0.0 1.0 0.00 0.00 0.00 84 1014.4
20260510004511 77 112 1.0 3.0 0.00 0.00 0.00 85 1014.4
20260510004009 77 104 0.0 4.0 0.00 0.00 0.00 85 1014.3
20260510003505 77 87 0.0 2.0 0.00 0.00 0.00 86 1014.2
20260510003001 77 102 1.0 2.0 0.00 0.00 0.00 86 1014.2
20260510002457 77 75 0.0 3.0 0.00 0.00 0.00 87 1014.3
20260510001953 77 101 0.0 1.0 0.00 0.00 0.00 87 1014.0
20260510001451 77 98 0.0 1.0 0.00 0.00 0.00 88 1014.2
20260510000948 77 80 1.0 3.0 0.00 0.00 0.00 88 1014.0
20260510000444 78 84 0.0 1.0 0.00 0.00 0.00 88 1013.9
20260509235941 78 107 0.0 2.0 0.00 0.00 0.00 88 1014.1
20260509235437 78 87 1.0 3.0 0.00 0.00 0.00 88 1014.1
20260509234934 78 114 0.0 1.0 0.00 0.00 0.00 87 1013.9
20260509234431 78 92 0.0 2.0 0.00 0.00 0.00 87 1013.7
20260509233929 78 86 0.0 3.0 0.00 0.00 0.00 87 1013.6
20260509233426 78 95 2.0 7.0 0.00 0.00 0.00 86 1013.6
20260509232922 78 100 1.0 3.0 0.00 0.00 0.00 86 1013.7
20260509232420 79 96 2.0 4.0 0.00 0.00 0.00 84 1013.4
20260509231915 79 79 4.0 10.0 0.00 0.00 0.00 83 1013.4
20260509231413 79 59 1.0 3.0 0.00 0.00 0.00 82 1013.2
20260509230911 79 85 2.0 10.0 0.00 0.00 0.00 81 1013.2